Year,Month,Day,Hour,Minute,Value (Times are PST for temperature in C)
2007,07,10,00,00,17.80
2007,07,10,00,01,17.80
2007,07,10,00,02,17.80
2007,07,10,00,03,17.70
2007,07,10,00,04,17.90
2007,07,10,00,05,18.10
2007,07,10,00,06,18.30
2007,07,10,00,07,18.50
2007,07,10,00,08,18.80
2007,07,10,00,09,19.00
2007,07,10,00,10,19.00
2007,07,10,00,11,19.00
2007,07,10,00,12,19.00
2007,07,10,00,13,18.90
2007,07,10,00,14,18.90
2007,07,10,00,15,18.80
2007,07,10,00,16,18.80
2007,07,10,00,17,18.70
2007,07,10,00,18,18.60
2007,07,10,00,19,18.50
2007,07,10,00,20,18.40
2007,07,10,00,21,18.30
2007,07,10,00,22,18.20
2007,07,10,00,23,18.10
2007,07,10,00,24,18.00
2007,07,10,00,25,18.00
2007,07,10,00,26,17.90
2007,07,10,00,27,17.80
2007,07,10,00,28,17.80
2007,07,10,00,29,17.70
2007,07,10,00,30,17.70
2007,07,10,00,31,17.70
2007,07,10,00,32,17.70
2007,07,10,00,33,17.70
2007,07,10,00,34,17.70
2007,07,10,00,35,17.70
2007,07,10,00,36,17.60
2007,07,10,00,37,17.60
2007,07,10,00,38,17.60
2007,07,10,00,39,17.60
2007,07,10,00,40,17.60
2007,07,10,00,41,17.60
2007,07,10,00,42,17.70
2007,07,10,00,43,17.80
2007,07,10,00,44,18.00
2007,07,10,00,45,18.20
2007,07,10,00,46,18.30
2007,07,10,00,47,18.30
2007,07,10,00,48,18.40
2007,07,10,00,49,18.40
2007,07,10,00,50,18.50
2007,07,10,00,51,18.60
2007,07,10,00,52,18.70
2007,07,10,00,53,18.70
2007,07,10,00,54,18.80
2007,07,10,00,55,18.80
2007,07,10,00,56,18.80
2007,07,10,00,57,18.70
2007,07,10,00,58,18.60
2007,07,10,00,59,18.40
2007,07,10,01,00,18.30
2007,07,10,01,01,18.30
2007,07,10,01,02,18.30
2007,07,10,01,03,18.20
2007,07,10,01,04,18.20
2007,07,10,01,05,18.20
2007,07,10,01,06,18.20
2007,07,10,01,07,18.30
2007,07,10,01,08,18.30
2007,07,10,01,09,18.30
2007,07,10,01,10,18.30
2007,07,10,01,11,18.20
2007,07,10,01,12,18.20
2007,07,10,01,13,18.10
2007,07,10,01,14,18.10
2007,07,10,01,15,18.00
2007,07,10,01,16,17.90
2007,07,10,01,17,17.80
2007,07,10,01,18,17.80
2007,07,10,01,19,17.70
2007,07,10,01,20,17.70
2007,07,10,01,21,17.60
2007,07,10,01,22,17.50
2007,07,10,01,23,17.50
2007,07,10,01,24,17.40
2007,07,10,01,25,17.40
2007,07,10,01,26,17.30
2007,07,10,01,27,17.30
2007,07,10,01,28,17.20
2007,07,10,01,29,17.20
2007,07,10,01,30,17.20
2007,07,10,01,31,17.10
2007,07,10,01,32,17.10
2007,07,10,01,33,17.10
2007,07,10,01,34,17.00
2007,07,10,01,35,17.00
2007,07,10,01,36,17.00
2007,07,10,01,37,17.00
2007,07,10,01,38,16.90
2007,07,10,01,39,16.90
2007,07,10,01,40,16.90
2007,07,10,01,41,16.80
2007,07,10,01,42,16.70
2007,07,10,01,43,16.70
2007,07,10,01,44,16.60
2007,07,10,01,45,16.60
2007,07,10,01,46,16.50
2007,07,10,01,47,16.50
2007,07,10,01,48,16.50
2007,07,10,01,49,16.40
2007,07,10,01,50,16.40
2007,07,10,01,51,16.40
2007,07,10,01,52,16.40
2007,07,10,01,53,16.40
2007,07,10,01,54,16.40
2007,07,10,01,55,16.30
2007,07,10,01,56,16.30
2007,07,10,01,57,16.30
2007,07,10,01,58,16.30
2007,07,10,01,59,16.30
2007,07,10,02,00,16.30
2007,07,10,02,01,16.30
2007,07,10,02,02,16.30
2007,07,10,02,03,16.30
2007,07,10,02,04,16.20
2007,07,10,02,05,16.20
2007,07,10,02,06,16.20
2007,07,10,02,07,16.20
2007,07,10,02,08,16.20
2007,07,10,02,09,16.20
2007,07,10,02,10,16.20
2007,07,10,02,11,16.20
2007,07,10,02,12,16.20
2007,07,10,02,13,16.20
2007,07,10,02,14,16.20
2007,07,10,02,15,16.20
2007,07,10,02,16,16.10
2007,07,10,02,17,16.10
2007,07,10,02,18,16.10
2007,07,10,02,19,16.00
2007,07,10,02,20,16.00
2007,07,10,02,21,16.00
2007,07,10,02,22,16.00
2007,07,10,02,23,15.90
2007,07,10,02,24,15.90
2007,07,10,02,25,15.90
2007,07,10,02,26,15.80
2007,07,10,02,27,15.80
2007,07,10,02,28,15.80
2007,07,10,02,29,15.80
2007,07,10,02,30,15.70
2007,07,10,02,31,15.70
2007,07,10,02,32,15.70
2007,07,10,02,33,15.60
2007,07,10,02,34,15.60
2007,07,10,02,35,15.60
2007,07,10,02,36,15.60
2007,07,10,02,37,15.50
2007,07,10,02,38,15.50
2007,07,10,02,39,15.50
2007,07,10,02,40,15.50
2007,07,10,02,41,15.40
2007,07,10,02,42,15.40
2007,07,10,02,43,15.40
2007,07,10,02,44,15.40
2007,07,10,02,45,15.40
2007,07,10,02,46,15.30
2007,07,10,02,47,15.30
2007,07,10,02,48,15.30
2007,07,10,02,49,15.30
2007,07,10,02,50,15.30
2007,07,10,02,51,15.20
2007,07,10,02,52,15.20
2007,07,10,02,53,15.10
2007,07,10,02,54,15.10
2007,07,10,02,55,15.00
2007,07,10,02,56,15.00
2007,07,10,02,57,15.00
2007,07,10,02,58,15.00
2007,07,10,02,59,15.00
2007,07,10,03,00,15.00
2007,07,10,03,01,15.00
2007,07,10,03,02,15.00
2007,07,10,03,03,15.00
2007,07,10,03,04,14.90
2007,07,10,03,05,14.80
2007,07,10,03,06,14.80
2007,07,10,03,07,14.70
2007,07,10,03,08,14.70
2007,07,10,03,09,14.70
2007,07,10,03,10,14.60
2007,07,10,03,11,14.60
2007,07,10,03,12,14.60
2007,07,10,03,13,14.50
2007,07,10,03,14,14.40
2007,07,10,03,15,14.40
2007,07,10,03,16,14.30
2007,07,10,03,17,14.30
2007,07,10,03,18,14.30
2007,07,10,03,19,14.30
2007,07,10,03,20,14.30
2007,07,10,03,21,14.20
2007,07,10,03,22,14.20
2007,07,10,03,23,14.20
2007,07,10,03,24,14.10
2007,07,10,03,25,14.10
2007,07,10,03,26,14.10
2007,07,10,03,27,14.10
2007,07,10,03,28,14.10
2007,07,10,03,29,14.10
2007,07,10,03,30,14.00
2007,07,10,03,31,14.00
2007,07,10,03,32,14.00
2007,07,10,03,33,13.90
2007,07,10,03,34,13.90
2007,07,10,03,35,13.90
2007,07,10,03,36,13.90
2007,07,10,03,37,13.90
2007,07,10,03,38,13.90
2007,07,10,03,39,13.90
2007,07,10,03,40,13.90
2007,07,10,03,41,13.80
2007,07,10,03,42,13.80
2007,07,10,03,43,13.80
2007,07,10,03,44,13.80
2007,07,10,03,45,13.70
2007,07,10,03,46,13.70
2007,07,10,03,47,13.70
2007,07,10,03,48,13.60
2007,07,10,03,49,13.60
2007,07,10,03,50,13.60
2007,07,10,03,51,13.60
2007,07,10,03,52,13.60
2007,07,10,03,53,13.60
2007,07,10,03,54,13.60
2007,07,10,03,55,13.50
2007,07,10,03,56,13.50
2007,07,10,03,57,13.50
2007,07,10,03,58,13.50
2007,07,10,03,59,13.50
2007,07,10,04,00,13.50
2007,07,10,04,01,13.40
2007,07,10,04,02,13.40
2007,07,10,04,03,13.40
2007,07,10,04,04,13.40
2007,07,10,04,05,13.40
2007,07,10,04,06,13.40
2007,07,10,04,07,13.40
2007,07,10,04,08,13.40
2007,07,10,04,09,13.50
2007,07,10,04,10,13.50
2007,07,10,04,11,13.50
2007,07,10,04,12,13.50
2007,07,10,04,13,13.40
2007,07,10,04,14,13.40
2007,07,10,04,15,13.50
2007,07,10,04,16,13.50
2007,07,10,04,17,13.50
2007,07,10,04,18,13.60
2007,07,10,04,19,13.60
2007,07,10,04,20,13.70
2007,07,10,04,21,13.70
2007,07,10,04,22,13.80
2007,07,10,04,23,13.80
2007,07,10,04,24,13.80
2007,07,10,04,25,13.80
2007,07,10,04,26,13.80
2007,07,10,04,27,13.70
2007,07,10,04,28,13.70
2007,07,10,04,29,13.70
2007,07,10,04,30,13.70
2007,07,10,04,31,13.70
2007,07,10,04,32,13.70
2007,07,10,04,33,13.60
2007,07,10,04,34,13.60
2007,07,10,04,35,13.60
2007,07,10,04,36,13.60
2007,07,10,04,37,13.60
2007,07,10,04,38,13.60
2007,07,10,04,39,13.60
2007,07,10,04,40,13.50
2007,07,10,04,41,13.50
2007,07,10,04,42,13.50
2007,07,10,04,43,13.50
2007,07,10,04,44,13.50
2007,07,10,04,45,13.50
2007,07,10,04,46,13.40
2007,07,10,04,47,13.40
2007,07,10,04,48,13.40
2007,07,10,04,49,13.30
2007,07,10,04,50,13.30
2007,07,10,04,51,13.30
2007,07,10,04,52,13.30
2007,07,10,04,53,13.30
2007,07,10,04,54,13.30
2007,07,10,04,55,13.30
2007,07,10,04,56,13.20
2007,07,10,04,57,13.20
2007,07,10,04,58,13.20
2007,07,10,04,59,13.20
2007,07,10,05,00,13.20
2007,07,10,05,01,13.20
2007,07,10,05,02,13.20
2007,07,10,05,03,13.20
2007,07,10,05,04,13.10
2007,07,10,05,05,13.10
2007,07,10,05,06,13.10
2007,07,10,05,07,13.00
2007,07,10,05,08,13.00
2007,07,10,05,09,13.00
2007,07,10,05,10,13.00
2007,07,10,05,11,13.00
2007,07,10,05,12,12.90
2007,07,10,05,13,12.90
2007,07,10,05,14,12.90
2007,07,10,05,15,12.90
2007,07,10,05,16,12.90
2007,07,10,05,17,12.90
2007,07,10,05,18,12.90
2007,07,10,05,19,12.90
2007,07,10,05,20,12.90
2007,07,10,05,21,12.90
2007,07,10,05,22,12.90
2007,07,10,05,23,12.90
2007,07,10,05,24,12.90
2007,07,10,05,25,12.90
2007,07,10,05,26,12.90
2007,07,10,05,27,12.80
2007,07,10,05,28,12.80
2007,07,10,05,29,12.80
2007,07,10,05,30,12.80
2007,07,10,05,31,12.80
2007,07,10,05,32,12.80
2007,07,10,05,33,12.80
2007,07,10,05,34,12.80
2007,07,10,05,35,12.70
2007,07,10,05,36,12.70
2007,07,10,05,37,12.70
2007,07,10,05,38,12.70
2007,07,10,05,39,12.70
2007,07,10,05,40,12.70
2007,07,10,05,41,12.70
2007,07,10,05,42,12.70
2007,07,10,05,43,12.70
2007,07,10,05,44,12.70
2007,07,10,05,45,12.70
2007,07,10,05,46,12.70
2007,07,10,05,47,12.70
2007,07,10,05,48,12.70
2007,07,10,05,49,12.70
2007,07,10,05,50,12.70
2007,07,10,05,51,12.70
2007,07,10,05,52,12.70
2007,07,10,05,53,12.70
2007,07,10,05,54,12.70
2007,07,10,05,55,12.70
2007,07,10,05,56,12.80
2007,07,10,05,57,12.80
2007,07,10,05,58,12.80
2007,07,10,05,59,12.80
2007,07,10,06,00,12.80
2007,07,10,06,01,12.80
2007,07,10,06,02,12.90
2007,07,10,06,03,12.90
2007,07,10,06,04,13.00
2007,07,10,06,05,13.00
2007,07,10,06,06,13.10
2007,07,10,06,07,13.20
2007,07,10,06,08,13.20
2007,07,10,06,09,13.20
2007,07,10,06,10,13.30
2007,07,10,06,11,13.30
2007,07,10,06,12,13.40
2007,07,10,06,13,13.40
2007,07,10,06,14,13.50
2007,07,10,06,15,13.50
2007,07,10,06,16,13.60
2007,07,10,06,17,13.60
2007,07,10,06,18,13.60
2007,07,10,06,19,13.70
2007,07,10,06,20,13.80
2007,07,10,06,21,13.80
2007,07,10,06,22,13.90
2007,07,10,06,23,14.00
2007,07,10,06,24,14.00
2007,07,10,06,25,14.10
2007,07,10,06,26,14.10
2007,07,10,06,27,14.20
2007,07,10,06,28,14.30
2007,07,10,06,29,14.40
2007,07,10,06,30,14.50
2007,07,10,06,31,14.60
2007,07,10,06,32,14.60
2007,07,10,06,33,14.60
2007,07,10,06,34,14.70
2007,07,10,06,35,14.70
2007,07,10,06,36,14.80
2007,07,10,06,37,14.90
2007,07,10,06,38,15.00
2007,07,10,06,39,15.00
2007,07,10,06,40,15.00
2007,07,10,06,41,15.00
2007,07,10,06,42,15.10
2007,07,10,06,43,15.20
2007,07,10,06,44,15.30
2007,07,10,06,45,15.40
2007,07,10,06,46,15.50
2007,07,10,06,47,15.60
2007,07,10,06,48,15.70
2007,07,10,06,49,15.80
2007,07,10,06,50,15.80
2007,07,10,06,51,16.00
2007,07,10,06,52,16.10
2007,07,10,06,53,16.20
2007,07,10,06,54,16.30
2007,07,10,06,55,16.40
2007,07,10,06,56,16.50
2007,07,10,06,57,16.60
2007,07,10,06,58,16.70
2007,07,10,06,59,16.70
2007,07,10,07,00,16.80
2007,07,10,07,01,16.80
2007,07,10,07,02,16.90
2007,07,10,07,03,17.00
2007,07,10,07,04,17.00
2007,07,10,07,05,17.10
2007,07,10,07,06,17.20
2007,07,10,07,07,17.30
2007,07,10,07,08,17.40
2007,07,10,07,09,17.60
2007,07,10,07,10,17.70
2007,07,10,07,11,17.80
2007,07,10,07,12,17.90
2007,07,10,07,13,18.10
2007,07,10,07,14,18.20
2007,07,10,07,15,18.30
2007,07,10,07,16,18.40
2007,07,10,07,17,18.40
2007,07,10,07,18,18.50
2007,07,10,07,19,18.60
2007,07,10,07,20,18.60
2007,07,10,07,21,18.60
2007,07,10,07,22,18.70
2007,07,10,07,23,18.70
2007,07,10,07,24,18.80
2007,07,10,07,25,18.90
2007,07,10,07,26,19.00
2007,07,10,07,27,19.10
2007,07,10,07,28,19.30
2007,07,10,07,29,19.40
2007,07,10,07,30,19.50
2007,07,10,07,31,19.60
2007,07,10,07,32,19.70
2007,07,10,07,33,19.80
2007,07,10,07,34,19.80
2007,07,10,07,35,19.90
2007,07,10,07,36,19.90
2007,07,10,07,37,20.00
2007,07,10,07,38,20.10
2007,07,10,07,39,20.20
2007,07,10,07,40,20.20
2007,07,10,07,41,20.30
2007,07,10,07,42,20.30
2007,07,10,07,43,20.40
2007,07,10,07,44,20.40
2007,07,10,07,45,20.50
2007,07,10,07,46,20.60
2007,07,10,07,47,20.70
2007,07,10,07,48,20.70
2007,07,10,07,49,20.80
2007,07,10,07,50,20.80
2007,07,10,07,51,20.80
2007,07,10,07,52,20.80
2007,07,10,07,53,20.90
2007,07,10,07,54,21.00
2007,07,10,07,55,21.10
2007,07,10,07,56,21.20
2007,07,10,07,57,21.20
2007,07,10,07,58,21.20
2007,07,10,07,59,21.20
2007,07,10,08,00,21.30
2007,07,10,08,01,21.30
2007,07,10,08,02,21.30
2007,07,10,08,03,21.30
2007,07,10,08,04,21.40
2007,07,10,08,05,21.40
2007,07,10,08,06,21.60
2007,07,10,08,07,21.70
2007,07,10,08,08,21.80
2007,07,10,08,09,21.90
2007,07,10,08,10,21.90
2007,07,10,08,11,22.00
2007,07,10,08,12,22.00
2007,07,10,08,13,22.10
2007,07,10,08,14,22.20
2007,07,10,08,15,22.30
2007,07,10,08,16,22.40
2007,07,10,08,17,22.40
2007,07,10,08,18,22.50
2007,07,10,08,19,22.60
2007,07,10,08,20,22.70
2007,07,10,08,21,22.80
2007,07,10,08,22,22.90
2007,07,10,08,23,23.00
2007,07,10,08,24,23.10
2007,07,10,08,25,23.10
2007,07,10,08,26,23.20
2007,07,10,08,27,23.20
2007,07,10,08,28,23.20
2007,07,10,08,29,23.30
2007,07,10,08,30,23.30
2007,07,10,08,31,23.40
2007,07,10,08,32,23.50
2007,07,10,08,33,23.60
2007,07,10,08,34,23.60
2007,07,10,08,35,23.70
2007,07,10,08,36,23.70
2007,07,10,08,37,23.80
2007,07,10,08,38,23.80
2007,07,10,08,39,23.80
2007,07,10,08,40,23.90
2007,07,10,08,41,24.00
2007,07,10,08,42,24.00
2007,07,10,08,43,24.10
2007,07,10,08,44,24.10
2007,07,10,08,45,24.10
2007,07,10,08,46,24.20
2007,07,10,08,47,24.20
2007,07,10,08,48,24.20
2007,07,10,08,49,24.20
2007,07,10,08,50,24.30
2007,07,10,08,51,24.30
2007,07,10,08,52,24.40
2007,07,10,08,53,24.50
2007,07,10,08,54,24.60
2007,07,10,08,55,24.60
2007,07,10,08,56,24.70
2007,07,10,08,57,24.80
2007,07,10,08,58,24.90
2007,07,10,08,59,25.00
2007,07,10,09,00,25.10
2007,07,10,09,01,25.30
2007,07,10,09,02,25.30
2007,07,10,09,03,25.30
2007,07,10,09,04,25.30
2007,07,10,09,05,25.30
2007,07,10,09,06,25.40
2007,07,10,09,07,25.50
2007,07,10,09,08,25.50
2007,07,10,09,09,25.40
2007,07,10,09,10,25.40
2007,07,10,09,11,25.40
2007,07,10,09,12,25.40
2007,07,10,09,13,25.40
2007,07,10,09,14,25.40
2007,07,10,09,15,25.50
2007,07,10,09,16,25.60
2007,07,10,09,17,25.60
2007,07,10,09,18,25.70
2007,07,10,09,19,25.70
2007,07,10,09,20,25.70
2007,07,10,09,21,25.70
2007,07,10,09,22,25.80
2007,07,10,09,23,25.80
2007,07,10,09,24,25.90
2007,07,10,09,25,26.00
2007,07,10,09,26,26.00
2007,07,10,09,27,26.10
2007,07,10,09,28,26.30
2007,07,10,09,29,26.40
2007,07,10,09,30,26.50
2007,07,10,09,31,26.60
2007,07,10,09,32,26.60
2007,07,10,09,33,26.60
2007,07,10,09,34,26.60
2007,07,10,09,35,26.70
2007,07,10,09,36,26.80
2007,07,10,09,37,26.80
2007,07,10,09,38,26.80
2007,07,10,09,39,26.90
2007,07,10,09,40,26.90
2007,07,10,09,41,26.90
2007,07,10,09,42,26.90
2007,07,10,09,43,26.90
2007,07,10,09,44,26.90
2007,07,10,09,45,26.70
2007,07,10,09,46,26.60
2007,07,10,09,47,26.60
2007,07,10,09,48,26.50
2007,07,10,09,49,26.50
2007,07,10,09,50,26.50
2007,07,10,09,51,26.40
2007,07,10,09,52,26.40
2007,07,10,09,53,26.40
2007,07,10,09,54,26.40
2007,07,10,09,55,26.50
2007,07,10,09,56,26.60
2007,07,10,09,57,26.60
2007,07,10,09,58,26.70
2007,07,10,09,59,26.70
2007,07,10,10,00,26.60
2007,07,10,10,01,26.60
2007,07,10,10,02,26.70
2007,07,10,10,03,26.80
2007,07,10,10,04,26.90
2007,07,10,10,05,26.90
2007,07,10,10,06,26.90
2007,07,10,10,07,26.80
2007,07,10,10,08,26.90
2007,07,10,10,09,26.90
2007,07,10,10,10,26.90
2007,07,10,10,11,27.00
2007,07,10,10,12,27.10
2007,07,10,10,13,27.20
2007,07,10,10,14,27.30
2007,07,10,10,15,27.50
2007,07,10,10,16,27.50
2007,07,10,10,17,27.60
2007,07,10,10,18,27.70
2007,07,10,10,19,27.80
2007,07,10,10,20,27.80
2007,07,10,10,21,27.70
2007,07,10,10,22,27.70
2007,07,10,10,23,27.80
2007,07,10,10,24,27.80
2007,07,10,10,25,27.80
2007,07,10,10,26,27.70
2007,07,10,10,27,27.70
2007,07,10,10,28,27.60
2007,07,10,10,29,27.50
2007,07,10,10,30,27.40
2007,07,10,10,31,27.40
2007,07,10,10,32,27.40
2007,07,10,10,33,27.40
2007,07,10,10,34,27.50
2007,07,10,10,35,27.60
2007,07,10,10,36,27.60
2007,07,10,10,37,27.50
2007,07,10,10,38,27.40
2007,07,10,10,39,27.30
2007,07,10,10,40,27.30
2007,07,10,10,41,27.30
2007,07,10,10,42,27.30
2007,07,10,10,43,27.30
2007,07,10,10,44,27.20
2007,07,10,10,45,27.30
2007,07,10,10,46,27.30
2007,07,10,10,47,27.30
2007,07,10,10,48,27.30
2007,07,10,10,49,27.30
2007,07,10,10,50,27.30
2007,07,10,10,51,27.20
2007,07,10,10,52,27.20
2007,07,10,10,53,27.20
2007,07,10,10,54,27.30
2007,07,10,10,55,27.30
2007,07,10,10,56,27.40
2007,07,10,10,57,27.40
2007,07,10,10,58,27.20
2007,07,10,10,59,27.20
2007,07,10,11,00,27.30
2007,07,10,11,01,27.30
2007,07,10,11,02,27.20
2007,07,10,11,03,27.20
2007,07,10,11,04,27.20
2007,07,10,11,05,27.30
2007,07,10,11,06,27.20
2007,07,10,11,07,27.20
2007,07,10,11,08,27.20
2007,07,10,11,09,27.20
2007,07,10,11,10,27.40
2007,07,10,11,11,27.40
2007,07,10,11,12,27.40
2007,07,10,11,13,27.40
2007,07,10,11,14,27.50
2007,07,10,11,15,27.60
2007,07,10,11,16,27.60
2007,07,10,11,17,27.60
2007,07,10,11,18,27.60
2007,07,10,11,19,27.60
2007,07,10,11,20,27.60
2007,07,10,11,21,27.60
2007,07,10,11,22,27.60
2007,07,10,11,23,27.60
2007,07,10,11,24,27.60
2007,07,10,11,25,27.70
2007,07,10,11,26,27.70
2007,07,10,11,27,27.80
2007,07,10,11,28,28.00
2007,07,10,11,29,28.00
2007,07,10,11,30,27.90
2007,07,10,11,31,27.80
2007,07,10,11,32,27.70
2007,07,10,11,33,27.70
2007,07,10,11,34,27.80
2007,07,10,11,35,27.80
2007,07,10,11,36,27.90
2007,07,10,11,37,27.90
2007,07,10,11,38,27.90
2007,07,10,11,39,27.90
2007,07,10,11,40,27.90
2007,07,10,11,41,27.90
2007,07,10,11,42,28.00
2007,07,10,11,43,28.00
2007,07,10,11,44,27.90
2007,07,10,11,45,28.00
2007,07,10,11,46,28.00
2007,07,10,11,47,28.10
2007,07,10,11,48,28.20
2007,07,10,11,49,28.10
2007,07,10,11,50,27.90
2007,07,10,11,51,27.80
2007,07,10,11,52,27.90
2007,07,10,11,53,27.90
2007,07,10,11,54,27.90
2007,07,10,11,55,28.10
2007,07,10,11,56,28.10
2007,07,10,11,57,28.10
2007,07,10,11,58,28.10
2007,07,10,11,59,28.10
2007,07,10,12,00,28.10
2007,07,10,12,01,28.10
2007,07,10,12,02,28.10
2007,07,10,12,03,28.10
2007,07,10,12,04,28.00
2007,07,10,12,05,28.10
2007,07,10,12,06,28.20
2007,07,10,12,07,28.10
2007,07,10,12,08,28.10
2007,07,10,12,09,28.20
2007,07,10,12,10,28.20
2007,07,10,12,11,28.20
2007,07,10,12,12,28.20
2007,07,10,12,13,28.30
2007,07,10,12,14,28.30
2007,07,10,12,15,28.30
2007,07,10,12,16,28.30
2007,07,10,12,17,28.40
2007,07,10,12,18,28.40
2007,07,10,12,19,28.60
2007,07,10,12,20,28.60
2007,07,10,12,21,28.70
2007,07,10,12,22,28.60
2007,07,10,12,23,28.50
2007,07,10,12,24,28.50
2007,07,10,12,25,28.60
2007,07,10,12,26,28.70
2007,07,10,12,27,28.60
2007,07,10,12,28,28.70
2007,07,10,12,29,28.80
2007,07,10,12,30,28.80
2007,07,10,12,31,28.80
2007,07,10,12,32,28.80
2007,07,10,12,33,28.80
2007,07,10,12,34,28.80
2007,07,10,12,35,28.80
2007,07,10,12,36,28.80
2007,07,10,12,37,28.80
2007,07,10,12,38,28.80
2007,07,10,12,39,28.90
2007,07,10,12,40,28.70
2007,07,10,12,41,28.70
2007,07,10,12,42,28.80
2007,07,10,12,43,28.90
2007,07,10,12,44,29.10
2007,07,10,12,45,29.20
2007,07,10,12,46,29.20
2007,07,10,12,47,29.30
2007,07,10,12,48,29.40
2007,07,10,12,49,29.50
2007,07,10,12,50,29.40
2007,07,10,12,51,29.30
2007,07,10,12,52,29.30
2007,07,10,12,53,29.30
2007,07,10,12,54,29.30
2007,07,10,12,55,29.40
2007,07,10,12,56,29.50
2007,07,10,12,57,29.60
2007,07,10,12,58,29.70
2007,07,10,12,59,29.80
2007,07,10,13,00,29.80
2007,07,10,13,01,29.80
2007,07,10,13,02,29.80
2007,07,10,13,03,29.80
2007,07,10,13,04,29.80
2007,07,10,13,05,29.70
2007,07,10,13,06,29.80
2007,07,10,13,07,29.70
2007,07,10,13,08,29.80
2007,07,10,13,09,29.90
2007,07,10,13,10,29.90
2007,07,10,13,11,29.90
2007,07,10,13,12,29.80
2007,07,10,13,13,29.80
2007,07,10,13,14,29.90
2007,07,10,13,15,30.00
2007,07,10,13,16,30.00
2007,07,10,13,17,30.10
2007,07,10,13,18,30.10
2007,07,10,13,19,30.10
2007,07,10,13,20,30.10
2007,07,10,13,21,30.10
2007,07,10,13,22,30.10
2007,07,10,13,23,30.20
2007,07,10,13,24,30.30
2007,07,10,13,25,30.40
2007,07,10,13,26,30.50
2007,07,10,13,27,30.50
2007,07,10,13,28,30.50
2007,07,10,13,29,30.40
2007,07,10,13,30,30.30
2007,07,10,13,31,30.30
2007,07,10,13,32,30.30
2007,07,10,13,33,30.30
2007,07,10,13,34,30.30
2007,07,10,13,35,30.20
2007,07,10,13,36,30.20
2007,07,10,13,37,30.20
2007,07,10,13,38,30.30
2007,07,10,13,39,30.30
2007,07,10,13,40,30.40
2007,07,10,13,41,30.50
2007,07,10,13,42,30.50
2007,07,10,13,43,30.60
2007,07,10,13,44,30.50
2007,07,10,13,45,30.50
2007,07,10,13,46,30.60
2007,07,10,13,47,30.60
2007,07,10,13,48,30.60
2007,07,10,13,49,30.60
2007,07,10,13,50,30.70
2007,07,10,13,51,30.80
2007,07,10,13,52,30.80
2007,07,10,13,53,30.80
2007,07,10,13,54,30.80
2007,07,10,13,55,30.80
2007,07,10,13,56,30.80
2007,07,10,13,57,30.90
2007,07,10,13,58,31.00
2007,07,10,13,59,31.00
2007,07,10,14,00,31.00
2007,07,10,14,01,31.00
2007,07,10,14,02,30.80
2007,07,10,14,03,30.70
2007,07,10,14,04,30.60
2007,07,10,14,05,30.60
2007,07,10,14,06,30.70
2007,07,10,14,07,30.70
2007,07,10,14,08,30.70
2007,07,10,14,09,30.80
2007,07,10,14,10,30.80
2007,07,10,14,11,30.90
2007,07,10,14,12,31.00
2007,07,10,14,13,31.20
2007,07,10,14,14,31.20
2007,07,10,14,15,31.10
2007,07,10,14,16,31.20
2007,07,10,14,17,31.30
2007,07,10,14,18,31.30
2007,07,10,14,19,31.30
2007,07,10,14,20,31.30
2007,07,10,14,21,31.20
2007,07,10,14,22,31.30
2007,07,10,14,23,31.40
2007,07,10,14,24,31.40
2007,07,10,14,25,31.50
2007,07,10,14,26,31.40
2007,07,10,14,27,31.30
2007,07,10,14,28,31.30
2007,07,10,14,29,31.30
2007,07,10,14,30,31.40
2007,07,10,14,31,31.50
2007,07,10,14,32,31.60
2007,07,10,14,33,31.60
2007,07,10,14,34,31.50
2007,07,10,14,35,31.40
2007,07,10,14,36,31.30
2007,07,10,14,37,31.10
2007,07,10,14,38,30.60
2007,07,10,14,39,30.10
2007,07,10,14,40,29.70
2007,07,10,14,41,29.50
2007,07,10,14,42,29.40
2007,07,10,14,43,29.40
2007,07,10,14,44,29.50
2007,07,10,14,45,29.60
2007,07,10,14,46,29.50
2007,07,10,14,47,29.50
2007,07,10,14,48,29.40
2007,07,10,14,49,29.40
2007,07,10,14,50,29.30
2007,07,10,14,51,29.30
2007,07,10,14,52,29.40
2007,07,10,14,53,29.50
2007,07,10,14,54,29.60
2007,07,10,14,55,29.60
2007,07,10,14,56,29.70
2007,07,10,14,57,29.80
2007,07,10,14,58,29.90
2007,07,10,14,59,29.90
2007,07,10,15,00,30.00
2007,07,10,15,01,30.10
2007,07,10,15,02,30.20
2007,07,10,15,03,30.30
2007,07,10,15,04,30.40
2007,07,10,15,05,30.50
2007,07,10,15,06,30.60
2007,07,10,15,07,30.60
2007,07,10,15,08,30.60
2007,07,10,15,09,30.60
2007,07,10,15,10,30.50
2007,07,10,15,11,30.40
2007,07,10,15,12,30.30
2007,07,10,15,13,30.10
2007,07,10,15,14,30.00
2007,07,10,15,15,29.80
2007,07,10,15,16,29.70
2007,07,10,15,17,29.70
2007,07,10,15,18,29.70
2007,07,10,15,19,29.70
2007,07,10,15,20,29.80
2007,07,10,15,21,29.80
2007,07,10,15,22,29.70
2007,07,10,15,23,29.60
2007,07,10,15,24,29.60
2007,07,10,15,25,29.50
2007,07,10,15,26,29.40
2007,07,10,15,27,29.50
2007,07,10,15,28,29.50
2007,07,10,15,29,29.60
2007,07,10,15,30,29.60
2007,07,10,15,31,29.60
2007,07,10,15,32,29.60
2007,07,10,15,33,29.70
2007,07,10,15,34,29.70
2007,07,10,15,35,29.70
2007,07,10,15,36,29.70
2007,07,10,15,37,29.80
2007,07,10,15,38,29.90
2007,07,10,15,39,30.00
2007,07,10,15,40,30.10
2007,07,10,15,41,30.10
2007,07,10,15,42,30.10
2007,07,10,15,43,30.10
2007,07,10,15,44,30.10
2007,07,10,15,45,30.10
2007,07,10,15,46,30.20
2007,07,10,15,47,30.30
2007,07,10,15,48,30.40
2007,07,10,15,49,30.60
2007,07,10,15,50,30.70
2007,07,10,15,51,30.70
2007,07,10,15,52,30.80
2007,07,10,15,53,30.70
2007,07,10,15,54,30.80
2007,07,10,15,55,30.80
2007,07,10,15,56,30.80
2007,07,10,15,57,30.80
2007,07,10,15,58,30.80
2007,07,10,15,59,30.70
2007,07,10,16,00,30.70
2007,07,10,16,01,30.80
2007,07,10,16,02,30.90
2007,07,10,16,03,31.00
2007,07,10,16,04,31.20
2007,07,10,16,05,31.40
2007,07,10,16,06,31.60
2007,07,10,16,07,31.50
2007,07,10,16,08,31.40
2007,07,10,16,09,31.30
2007,07,10,16,10,31.30
2007,07,10,16,11,31.30
2007,07,10,16,12,31.30
2007,07,10,16,13,31.30
2007,07,10,16,14,31.40
2007,07,10,16,15,31.40
2007,07,10,16,16,31.50
2007,07,10,16,17,31.60
2007,07,10,16,18,31.70
2007,07,10,16,19,31.70
2007,07,10,16,20,31.70
2007,07,10,16,21,31.80
2007,07,10,16,22,31.80
2007,07,10,16,23,31.80
2007,07,10,16,24,31.90
2007,07,10,16,25,32.10
2007,07,10,16,26,32.10
2007,07,10,16,27,31.90
2007,07,10,16,28,31.70
2007,07,10,16,29,31.60
2007,07,10,16,30,31.50
2007,07,10,16,31,31.50
2007,07,10,16,32,31.50
2007,07,10,16,33,31.50
2007,07,10,16,34,31.40
2007,07,10,16,35,31.30
2007,07,10,16,36,31.30
2007,07,10,16,37,31.30
2007,07,10,16,38,31.30
2007,07,10,16,39,31.30
2007,07,10,16,40,31.30
2007,07,10,16,41,31.30
2007,07,10,16,42,31.30
2007,07,10,16,43,31.20
2007,07,10,16,44,31.20
2007,07,10,16,45,31.20
2007,07,10,16,46,31.20
2007,07,10,16,47,31.30
2007,07,10,16,48,31.30
2007,07,10,16,49,31.30
2007,07,10,16,50,31.20
2007,07,10,16,51,31.10
2007,07,10,16,52,31.00
2007,07,10,16,53,30.90
2007,07,10,16,54,30.80
2007,07,10,16,55,30.80
2007,07,10,16,56,30.80
2007,07,10,16,57,30.80
2007,07,10,16,58,30.90
2007,07,10,16,59,31.00
2007,07,10,17,00,31.10
2007,07,10,17,01,31.20
2007,07,10,17,02,31.40
2007,07,10,17,03,31.50
2007,07,10,17,04,31.60
2007,07,10,17,05,31.60
2007,07,10,17,06,31.60
2007,07,10,17,07,31.60
2007,07,10,17,08,31.60
2007,07,10,17,09,31.70
2007,07,10,17,10,31.70
2007,07,10,17,11,31.80
2007,07,10,17,12,31.90
2007,07,10,17,13,31.90
2007,07,10,17,14,32.00
2007,07,10,17,15,32.00
2007,07,10,17,16,32.10
2007,07,10,17,17,32.00
2007,07,10,17,18,32.00
2007,07,10,17,19,31.90